Regional Weather Roundup
Issued by NWS Goodland, KS

Home | Current Version | Previous Version | Graphics & Text | Print | Product List | Glossary On
Versions: 1 2 3 4 5 6 7 8 9 10 11 12 13 14 15 16 17 18 19 20 21 22 23 24 25 26 27 28 29 30 31 32 33 34 35 36 37 38 39 40 41 42 43 44 45 46 47 48 49 50
000
ASUS43 KGLD 211908
RWRGLD

GOODLAND FORECAST AREA HOURLY WEATHER ROUNDUP
NATIONAL WEATHER SERVICE GOODLAND KS
100 PM MDT SUN SEP 21 2014

...OFFICIAL OBSERVATIONS...

CITY           SKY/WX    TMP DP  RH WIND       PRES   REMARKS
GOODLAND KS    MOSUNNY   73  37  27 SE10      30.36F
HILL CITY KS   SUNNY     78  37  22 N13       30.30F
IMPERIAL NEB   CLOUDY    72  35  25 SE7       30.34F
MCCOOK NEB     SUNNY     76  37  24 N8        30.32F
AKRON CO       PTSUNNY   69  40  34 SE17G23   30.37F
BURLINGTON CO  PTSUNNY   71  37  28 MISG      30.37F
LIMON CO       MOSUNNY   70  41  34 S13G23    30.39F
$$

...UNOFFICIAL OBSERVATIONS...

CITY           SKY/WX    TMP DP  RH WIND       PRES   REMARKS
COLBY KS       MOSUNNY   75  45  33 E7        30.34F
GOVE KS          N/A     76  32  20 MISG        N/A
NORTON KS      SUNNY     75  28  17 NE9       30.29F
SHARON SPRINGS   N/A     73  42  33 CALM        N/A
WAKEENEY KS      N/A     77  37  23 MISG        N/A
TRENTON NEB      N/A     74  32  21 N8          N/A
KIT CARSON CO    N/A     71  40  32 N5G17       N/A
YUMA CO          N/A     70  40  33 S7G14       N/A
$$



USA.gov is the U.S. government's official web portal to all federal, state and local government web resources and services.